This is the latest recevied weather packets stored in our database for station/object NorthRyde. If no packets are shown the sender has not sent any weather packets the latest 10 day(s).
| Time | Temp. | Humidity | Pressure | Rain* | Wind** | Luminosity | Snow |
|---|---|---|---|---|---|---|---|
| 1777696778 | 23.33° C | 70% | 1023.9 hPa | 0 mm | - | 137 W/m² | - |
| 1777696718 | 23.33° C | 70% | 1023.8 hPa | 0 mm | - | 137 W/m² | - |
| 1777696661 | 23.89° C | 70% | 1023.9 hPa | 0 mm | - | 127 W/m² | - |
| 1777696597 | 23.89° C | 70% | 1023.9 hPa | 0 mm | - | 114 W/m² | - |
| 1777696538 | 23.89° C | 69% | 1023.9 hPa | 0 mm | - | 116 W/m² | - |
| 1777696479 | 23.89° C | 70% | 1023.9 hPa | 0 mm | - | 121 W/m² | - |
| 1777696417 | 23.89° C | 70% | 1024 hPa | 0 mm | - | 127 W/m² | - |
| 1777696359 | 23.89° C | 70% | 1024 hPa | 0 mm | - | 132 W/m² | - |
| 1777696303 | 23.89° C | 70% | 1023.9 hPa | 0 mm | - | 135 W/m² | - |
| 1777696237 | 23.89° C | 70% | 1023.9 hPa | 0 mm | - | 135 W/m² | - |
| 1777696177 | 23.89° C | 69% | 1024 hPa | 0 mm | - | 139 W/m² | - |
| 1777696119 | 23.89° C | 69% | 1024.1 hPa | 0 mm | - | 142 W/m² | - |
| 1777696058 | 23.89° C | 69% | 1024 hPa | 0 mm | - | 169 W/m² | - |
| 1777696002 | 23.89° C | 69% | 1024.1 hPa | 0 mm | - | 146 W/m² | - |
| 1777695939 | 23.89° C | 69% | 1023.9 hPa | 0 mm | - | 144 W/m² | - |
| 1777695877 | 23.89° C | 69% | 1024 hPa | 0 mm | - | 144 W/m² | - |
| 1777695810 | 23.89° C | 69% | 1024 hPa | 0 mm | - | 146 W/m² | - |
| 1777695749 | 23.89° C | 69% | 1024 hPa | 0 mm | - | 158 W/m² | - |
| 1777695696 | 23.89° C | 69% | 1024.1 hPa | 0 mm | - | 167 W/m² | - |
| 1777695629 | 23.89° C | 69% | 1024 hPa | 0 mm | - | 178 W/m² | - |
| 1777695571 | 23.89° C | 69% | 1024.1 hPa | 0 mm | - | 190 W/m² | - |
| 1777695504 | 23.89° C | 69% | 1024.1 hPa | 0 mm | - | 204 W/m² | - |
| 1777695444 | 23.89° C | 68% | 1024 hPa | 0 mm | - | 207 W/m² | - |
| 1777695378 | 23.89° C | 68% | 1024 hPa | 0 mm | - | 209 W/m² | - |
| 1777695320 | 23.89° C | 68% | 1024.1 hPa | 0 mm | - | 207 W/m² | - |
* Rain latest hour (hover to see other rain measurements)
** Current wind speed in m/s (hover to see current wind gust speed)